Time,TemperatureF,DewpointF,PressureIn,WindDirection,WindDirectionDegrees,WindSpeedMPH,WindSpeedGustMPH,Humidity,HourlyPrecipIn,Conditions,Clouds,dailyrainin,SoftwareType,DateUTC
2013-03-04 00:01:00,25.0,16.0,-100.00,WNW,299,1.0,12.0,67,0.00,,,-99.99,,2013-03-04 05:01:00,
2013-03-04 00:11:00,28.0,19.0,-100.00,NW,312,1.0,12.0,69,0.00,,,-99.99,,2013-03-04 05:11:00,
2013-03-04 00:22:00,26.0,18.0,-100.00,NW,307,1.0,12.0,68,0.00,,,-99.99,,2013-03-04 05:22:00,
2013-03-04 00:32:00,29.0,19.0,-100.00,WNW,302,2.0,12.0,68,0.00,,,-99.99,,2013-03-04 05:32:00,
2013-03-04 00:42:00,29.0,21.0,-100.00,WNW,286,1.0,12.0,67,0.00,,,-99.99,,2013-03-04 05:42:00,
2013-03-04 00:52:00,28.0,19.0,-100.00,NNW,327,4.0,12.0,69,0.00,,,-99.99,,2013-03-04 05:52:00,
2013-03-04 01:02:00,28.0,19.0,-100.00,NW,310,4.0,12.0,68,0.00,,,-99.99,,2013-03-04 06:02:00,
2013-03-04 01:11:00,28.0,19.0,-100.00,NNW,343,2.0,12.0,68,0.00,,,-99.99,,2013-03-04 06:11:00,
2013-03-04 01:22:00,28.0,19.0,-100.00,NW,314,4.0,12.0,69,0.00,,,-99.99,,2013-03-04 06:22:00,
2013-03-04 01:32:00,29.0,21.0,-100.00,NW,323,3.0,12.0,71,0.00,,,-99.99,,2013-03-04 06:32:00,
2013-03-04 01:42:00,28.0,21.0,-100.00,NW,312,3.0,12.0,73,0.00,,,-99.99,,2013-03-04 06:42:00,
2013-03-04 01:51:00,27.0,21.0,-100.00,NW,313,4.0,12.0,75,0.00,,,-99.99,,2013-03-04 06:51:00,
2013-03-04 02:02:00,26.0,19.0,-100.00,NNW,328,2.0,12.0,75,7.36,,,-99.99,,2013-03-04 07:02:00,
2013-03-04 02:11:00,27.0,21.0,-100.00,NW,321,4.0,12.0,77,2.83,,,-99.99,,2013-03-04 07:11:00,
2013-03-04 02:22:00,27.0,21.0,-100.00,NW,324,3.0,12.0,78,0.00,,,-99.99,,2013-03-04 07:22:00,
2013-03-04 02:32:00,26.0,21.0,-100.00,North,352,1.0,12.0,78,0.00,,,-99.99,,2013-03-04 07:32:00,
2013-03-04 02:42:00,26.0,21.0,-100.00,NNW,328,1.0,12.0,78,0.00,,,-99.99,,2013-03-04 07:42:00,
2013-03-04 02:52:00,25.0,19.0,-100.00,NW,326,0.0,12.0,78,0.00,,,-99.99,,2013-03-04 07:52:00,
2013-03-04 03:02:00,25.0,21.0,-100.00,NNW,343,1.0,1.0,80,0.00,,,-99.99,,2013-03-04 08:02:00,
2013-03-04 03:12:00,26.0,21.0,-100.00,North,351,1.0,1.0,80,0.00,,,-99.99,,2013-03-04 08:12:00,
2013-03-04 03:22:00,25.0,21.0,-100.00,NNE,25,1.0,1.0,80,0.00,,,-99.99,,2013-03-04 08:22:00,
2013-03-04 03:32:00,25.0,21.0,-100.00,North,1,1.0,1.0,80,0.00,,,-99.99,,2013-03-04 08:32:00,
2013-03-04 03:42:00,25.0,21.0,-100.00,NNE,15,1.0,1.0,80,0.00,,,-99.99,,2013-03-04 08:42:00,
2013-03-04 03:52:00,25.0,21.0,-100.00,NNE,12,1.0,1.0,80,0.00,,,-99.99,,2013-03-04 08:52:00,
2013-03-04 04:02:00,26.0,21.0,-100.00,North,9,1.0,1.0,80,0.00,,,-99.99,,2013-03-04 09:02:00,
2013-03-04 04:11:00,25.0,21.0,-100.00,North,4,1.0,1.0,81,0.00,,,-99.99,,2013-03-04 09:11:00,
2013-03-04 04:22:00,26.0,21.0,-100.00,North,2,1.0,1.0,81,0.00,,,-99.99,,2013-03-04 09:22:00,
2013-03-04 04:32:00,26.0,21.0,-100.00,NNE,19,1.0,1.0,81,0.00,,,-99.99,,2013-03-04 09:32:00,
2013-03-04 04:42:00,25.0,21.0,-100.00,NNE,18,1.0,1.0,81,0.00,,,-99.99,,2013-03-04 09:42:00,
2013-03-04 04:52:00,25.0,21.0,-100.00,North,11,0.0,1.0,82,0.00,,,-99.99,,2013-03-04 09:52:00,
2013-03-04 05:01:00,24.0,19.0,-100.00,North,1,0.0,1.0,82,0.00,,,-99.99,,2013-03-04 10:01:00,
2013-03-04 05:12:00,21.0,16.0,-100.00,North,360,0.0,1.0,81,0.00,,,-99.99,,2013-03-04 10:12:00,
2013-03-04 05:22:00,21.0,18.0,-100.00,SSW,196,0.0,1.0,82,0.00,,,-99.99,,2013-03-04 10:22:00,
2013-03-04 05:32:00,20.0,18.0,-100.00,North,360,0.0,1.0,82,0.00,,,-99.99,,2013-03-04 10:32:00,
2013-03-04 05:42:00,21.0,18.0,-100.00,NNE,32,1.0,1.0,84,0.00,,,-99.99,,2013-03-04 10:42:00,
2013-03-04 05:52:00,20.0,16.0,-100.00,North,7,0.0,1.0,84,0.00,,,-99.99,,2013-03-04 10:52:00,
2013-03-04 06:02:00,20.0,18.0,-100.00,NNW,336,0.0,1.0,85,0.00,,,-99.99,,2013-03-04 11:02:00,
2013-03-04 06:11:00,20.0,18.0,-100.00,SW,223,1.0,1.0,85,0.00,,,-99.99,,2013-03-04 11:11:00,
2013-03-04 06:22:00,20.0,18.0,-100.00,North,351,0.0,1.0,86,0.00,,,-99.99,,2013-03-04 11:22:00,
2013-03-04 06:32:00,19.0,16.0,-100.00,North,0,1.0,1.0,85,0.00,,,-99.99,,2013-03-04 11:32:00,
2013-03-04 06:42:00,19.0,16.0,-100.00,North,5,0.0,1.0,86,0.00,,,-99.99,,2013-03-04 11:42:00,
2013-03-04 06:52:00,19.0,18.0,-100.00,West,269,0.0,1.0,88,0.00,,,-99.99,,2013-03-04 11:52:00,
2013-03-04 07:02:00,19.0,18.0,-100.00,NNE,16,1.0,1.0,88,0.00,,,-99.99,,2013-03-04 12:02:00,
2013-03-04 07:11:00,20.0,18.0,-100.00,NNW,344,0.0,1.0,88,0.00,,,-99.99,,2013-03-04 12:11:00,
2013-03-04 07:22:00,19.0,16.0,-100.00,WNW,292,0.0,1.0,86,0.00,,,-99.99,,2013-03-04 12:22:00,
2013-03-04 07:32:00,19.0,18.0,-100.00,NE,39,0.0,1.0,88,0.00,,,-99.99,,2013-03-04 12:32:00,
2013-03-04 07:42:00,20.0,18.0,-100.00,NNW,344,0.0,1.0,88,0.00,,,-99.99,,2013-03-04 12:42:00,
2013-03-04 07:52:00,20.0,18.0,-100.00,WNW,286,0.0,1.0,86,0.00,,,-99.99,,2013-03-04 12:52:00,
2013-03-04 08:02:00,20.0,18.0,-100.00,WNW,289,0.0,1.0,86,0.00,,,-99.99,,2013-03-04 13:02:00,
2013-03-04 08:11:00,20.0,18.0,-100.00,NNW,344,0.0,1.0,86,0.00,,,-99.99,,2013-03-04 13:11:00,
2013-03-04 08:22:00,21.0,18.0,-100.00,NE,46,0.0,1.0,85,0.00,,,-99.99,,2013-03-04 13:22:00,
2013-03-04 08:32:00,21.0,18.0,-100.00,NNW,336,0.0,1.0,85,0.00,,,-99.99,,2013-03-04 13:32:00,
2013-03-04 08:42:00,22.0,19.0,-100.00,WNW,296,1.0,1.0,85,0.00,,,-99.99,,2013-03-04 13:42:00,
2013-03-04 08:52:00,22.0,19.0,-100.00,WNW,285,0.0,1.0,82,0.00,,,-99.99,,2013-03-04 13:52:00,
2013-03-04 09:01:00,24.0,19.0,-100.00,WNW,283,1.0,1.0,81,0.00,,,-99.99,,2013-03-04 14:01:00,
2013-03-04 09:12:00,24.0,19.0,-100.00,NW,313,2.0,2.0,80,0.00,,,-99.99,,2013-03-04 14:12:00,
2013-03-04 09:22:00,25.0,19.0,-100.00,West,279,2.0,4.0,77,0.00,,,-99.99,,2013-03-04 14:22:00,
2013-03-04 09:32:00,26.0,19.0,-100.00,West,280,2.0,4.0,76,0.00,,,-99.99,,2013-03-04 14:32:00,
2013-03-04 09:42:00,27.0,21.0,-100.00,WNW,300,2.0,4.0,75,0.00,,,-99.99,,2013-03-04 14:42:00,
2013-03-04 09:52:00,27.0,21.0,-100.00,NW,313,2.0,4.0,73,0.00,,,-99.99,,2013-03-04 14:52:00,
2013-03-04 10:02:00,27.0,19.0,-100.00,NW,314,3.0,4.0,71,0.00,,,-99.99,,2013-03-04 15:02:00,
2013-03-04 10:11:00,29.0,21.0,-100.00,WNW,300,1.0,4.0,69,0.00,,,-99.99,,2013-03-04 15:11:00,
2013-03-04 10:22:00,29.0,19.0,-100.00,NW,313,3.0,4.0,66,0.00,,,-99.99,,2013-03-04 15:22:00,
2013-03-04 10:32:00,29.0,19.0,-100.00,WNW,303,4.0,8.0,63,0.00,,,-99.99,,2013-03-04 15:32:00,
2013-03-04 10:42:00,30.0,19.0,-100.00,West,279,3.0,8.0,64,0.00,,,-99.99,,2013-03-04 15:42:00,
2013-03-04 10:52:00,31.0,19.0,-100.00,WNW,299,4.0,8.0,59,0.00,,,-99.99,,2013-03-04 15:52:00,
2013-03-04 11:03:00,31.0,19.0,-100.00,West,264,7.0,10.0,59,0.00,,,-99.99,,2013-03-04 16:03:00,
2013-03-04 11:11:00,31.0,19.0,-100.00,West,276,9.0,12.0,58,0.00,,,-99.99,,2013-03-04 16:11:00,
2013-03-04 11:21:00,31.0,19.0,-100.00,NW,313,8.0,12.0,58,0.00,,,-99.99,,2013-03-04 16:21:00,
2013-03-04 11:32:00,32.0,19.0,-100.00,WNW,293,6.0,12.0,56,0.00,,,-99.99,,2013-03-04 16:32:00,
2013-03-04 11:42:00,32.0,19.0,-100.00,West,264,6.0,12.0,55,0.00,,,-99.99,,2013-03-04 16:42:00,
2013-03-04 11:52:00,32.0,18.0,-100.00,NW,313,4.0,12.0,54,0.00,,,-99.99,,2013-03-04 16:52:00,
2013-03-04 12:02:00,33.0,19.0,-100.00,NW,316,4.0,12.0,55,0.00,,,-99.99,,2013-03-04 17:02:00,
2013-03-04 12:11:00,32.0,18.0,-100.00,WNW,282,6.0,12.0,53,0.00,,,-99.99,,2013-03-04 17:11:00,
2013-03-04 12:22:00,34.0,18.0,-100.00,WSW,256,3.0,12.0,51,0.00,,,-99.99,,2013-03-04 17:22:00,
2013-03-04 12:32:00,33.0,19.0,-100.00,NNW,338,4.0,12.0,53,0.00,,,-99.99,,2013-03-04 17:32:00,
2013-03-04 12:42:00,33.0,19.0,-100.00,NW,304,6.0,12.0,55,0.00,,,-99.99,,2013-03-04 17:42:00,
2013-03-04 12:52:00,34.0,19.0,-100.00,NW,306,6.0,12.0,53,0.00,,,-99.99,,2013-03-04 17:52:00,
2013-03-04 13:02:00,34.0,18.0,-100.00,WNW,293,6.0,12.0,51,0.00,,,-99.99,,2013-03-04 18:02:00,
2013-03-04 13:11:00,34.0,19.0,-100.00,WNW,283,7.0,12.0,51,0.00,,,-99.99,,2013-03-04 18:11:00,
2013-03-04 13:22:00,34.0,18.0,-100.00,NW,321,7.0,12.0,50,0.00,,,-99.99,,2013-03-04 18:22:00,
2013-03-04 13:32:00,34.0,19.0,-100.00,WNW,297,6.0,12.0,51,0.00,,,-99.99,,2013-03-04 18:32:00,
2013-03-04 13:42:00,34.0,19.0,-100.00,North,5,4.0,12.0,51,0.00,,,-99.99,,2013-03-04 18:42:00,
2013-03-04 13:52:00,36.0,19.0,-100.00,WSW,255,5.0,12.0,49,0.00,,,-99.99,,2013-03-04 18:52:00,
2013-03-04 14:02:00,36.0,21.0,-100.00,WNW,285,5.0,12.0,54,0.00,,,-99.99,,2013-03-04 19:02:00,
2013-03-04 14:12:00,36.0,19.0,-100.00,NW,326,4.0,12.0,50,0.00,,,-99.99,,2013-03-04 19:12:00,
2013-03-04 14:22:00,35.0,19.0,-100.00,WNW,289,4.0,12.0,51,0.00,,,-99.99,,2013-03-04 19:22:00,
2013-03-04 14:32:00,36.0,19.0,-100.00,WNW,286,5.0,12.0,50,0.00,,,-99.99,,2013-03-04 19:32:00,
2013-03-04 14:42:00,36.0,19.0,-100.00,NW,323,2.0,12.0,47,0.00,,,-99.99,,2013-03-04 19:42:00,
2013-03-04 14:52:00,38.0,19.0,-100.00,WNW,288,4.0,12.0,46,0.00,,,-99.99,,2013-03-04 19:52:00,
2013-03-04 15:02:00,37.0,19.0,-100.00,WNW,303,4.0,12.0,47,0.00,,,-99.99,,2013-03-04 20:02:00,
2013-03-04 15:12:00,37.0,19.0,-100.00,NW,316,4.0,12.0,46,0.00,,,-99.99,,2013-03-04 20:12:00,
2013-03-04 15:22:00,37.0,19.0,-100.00,West,276,3.0,12.0,47,0.00,,,-99.99,,2013-03-04 20:22:00,
2013-03-04 15:32:00,37.0,19.0,-100.00,NW,306,5.0,12.0,47,0.00,,,-99.99,,2013-03-04 20:32:00,
2013-03-04 15:42:00,38.0,19.0,-100.00,WNW,289,3.0,12.0,46,0.00,,,-99.99,,2013-03-04 20:42:00,
2013-03-04 15:52:00,39.0,21.0,-100.00,WNW,303,6.0,12.0,47,0.00,,,-99.99,,2013-03-04 20:52:00,
2013-03-04 16:02:00,39.0,21.0,-100.00,NW,323,3.0,12.0,47,0.00,,,-99.99,,2013-03-04 21:02:00,
2013-03-04 16:12:00,39.0,21.0,-100.00,West,265,4.0,12.0,46,0.00,,,-99.99,,2013-03-04 21:12:00,
2013-03-04 16:22:00,39.0,21.0,-100.00,WNW,296,4.0,12.0,46,0.00,,,-99.99,,2013-03-04 21:22:00,
2013-03-04 16:32:00,38.0,19.0,-100.00,NW,324,4.0,12.0,45,0.00,,,-99.99,,2013-03-04 21:32:00,
2013-03-04 16:42:00,38.0,19.0,-100.00,NNW,337,4.0,12.0,46,0.00,,,-99.99,,2013-03-04 21:42:00,
2013-03-04 16:52:00,41.0,23.0,-100.00,North,1,2.0,12.0,47,0.00,,,-99.99,,2013-03-04 21:52:00,
2013-03-04 17:02:00,39.0,19.0,-100.00,WNW,289,3.0,12.0,45,0.00,,,-99.99,,2013-03-04 22:02:00,
2013-03-04 17:12:00,39.0,19.0,-100.00,NW,321,2.0,12.0,44,0.00,,,-99.99,,2013-03-04 22:12:00,
2013-03-04 17:22:00,38.0,19.0,-100.00,WNW,299,2.0,12.0,45,0.00,,,-99.99,,2013-03-04 22:22:00,
2013-03-04 17:32:00,38.0,19.0,-100.00,NW,312,2.0,12.0,47,0.00,,,-99.99,,2013-03-04 22:32:00,
2013-03-04 17:42:00,38.0,19.0,-100.00,WNW,286,1.0,12.0,47,0.00,,,-99.99,,2013-03-04 22:42:00,
2013-03-04 17:52:00,37.0,19.0,-100.00,NW,313,3.0,12.0,47,0.00,,,-99.99,,2013-03-04 22:52:00,
2013-03-04 18:02:00,36.0,19.0,-100.00,NW,306,3.0,12.0,49,0.00,,,-99.99,,2013-03-04 23:02:00,
2013-03-04 18:11:00,36.0,19.0,-100.00,North,360,2.0,12.0,50,0.00,,,-99.99,,2013-03-04 23:11:00,
2013-03-04 18:22:00,36.0,19.0,-100.00,NE,43,2.0,12.0,51,0.00,,,-99.99,,2013-03-04 23:22:00,
2013-03-04 18:32:00,35.0,19.0,-100.00,NNW,343,1.0,12.0,53,0.00,,,-99.99,,2013-03-04 23:32:00,
2013-03-04 18:42:00,35.0,21.0,-100.00,North,360,1.0,12.0,53,0.00,,,-99.99,,2013-03-04 23:42:00,
2013-03-04 18:52:00,35.0,21.0,-100.00,North,354,1.0,12.0,54,0.00,,,-99.99,,2013-03-04 23:52:00,
2013-03-04 19:02:00,34.0,19.0,-100.00,NNE,19,1.0,12.0,53,0.00,,,-99.99,,2013-03-05 00:02:00,
2013-03-04 19:12:00,34.0,21.0,-100.00,NE,39,2.0,12.0,58,0.00,,,-99.99,,2013-03-05 00:12:00,
2013-03-04 19:22:00,34.0,21.0,-100.00,NNE,25,3.0,12.0,58,0.00,,,-99.99,,2013-03-05 00:22:00,
2013-03-04 19:32:00,33.0,21.0,-100.00,North,8,2.0,12.0,60,0.00,,,-99.99,,2013-03-05 00:32:00,
2013-03-04 19:42:00,33.0,23.0,-100.00,NNE,18,2.0,12.0,62,0.00,,,-99.99,,2013-03-05 00:42:00,
2013-03-04 19:52:00,33.0,23.0,-100.00,NE,49,2.0,12.0,62,0.00,,,-99.99,,2013-03-05 00:52:00,
2013-03-04 20:02:00,32.0,21.0,-100.00,ENE,77,1.0,12.0,63,0.00,,,-99.99,,2013-03-05 01:02:00,
2013-03-04 20:12:00,32.0,23.0,-100.00,NNE,22,3.0,12.0,64,0.00,,,-99.99,,2013-03-05 01:12:00,
2013-03-04 20:22:00,32.0,23.0,-100.00,NNE,31,3.0,12.0,64,0.00,,,-99.99,,2013-03-05 01:22:00,
2013-03-04 20:32:00,31.0,23.0,-100.00,NE,43,2.0,12.0,67,0.00,,,-99.99,,2013-03-05 01:32:00,
2013-03-04 20:42:00,31.0,21.0,-100.00,NNE,15,2.0,12.0,64,0.00,,,-99.99,,2013-03-05 01:42:00,
2013-03-04 20:52:00,30.0,21.0,-100.00,North,355,1.0,12.0,68,0.00,,,-99.99,,2013-03-05 01:52:00,
2013-03-04 21:02:00,30.0,23.0,-100.00,North,358,0.0,12.0,71,0.00,,,-99.99,,2013-03-05 02:02:00,
2013-03-04 21:12:00,30.0,23.0,-100.00,SW,216,0.0,12.0,73,0.00,,,-99.99,,2013-03-05 02:12:00,
2013-03-04 21:22:00,28.0,21.0,-100.00,North,9,0.0,12.0,73,0.00,,,-99.99,,2013-03-05 02:22:00,
2013-03-04 21:32:00,29.0,23.0,-100.00,NNW,333,0.0,12.0,75,0.00,,,-99.99,,2013-03-05 02:32:00,
2013-03-04 21:42:00,29.0,23.0,-100.00,South,177,0.0,12.0,75,0.00,,,-99.99,,2013-03-05 02:42:00,
2013-03-04 21:52:00,29.0,23.0,-100.00,SSE,152,0.0,12.0,76,0.00,,,-99.99,,2013-03-05 02:52:00,
2013-03-04 22:02:00,28.0,23.0,-100.00,NNE,21,1.0,12.0,76,0.00,,,-99.99,,2013-03-05 03:02:00,
2013-03-04 22:12:00,28.0,23.0,-100.00,North,360,0.0,12.0,76,0.00,,,-99.99,,2013-03-05 03:12:00,
2013-03-04 22:22:00,28.0,23.0,-100.00,NE,43,1.0,12.0,76,0.00,,,-99.99,,2013-03-05 03:22:00,
2013-03-04 22:32:00,28.0,21.0,-100.00,NNE,33,0.0,12.0,76,0.00,,,-99.99,,2013-03-05 03:32:00,
2013-03-04 22:42:00,28.0,23.0,-100.00,NNE,32,1.0,12.0,77,0.00,,,-99.99,,2013-03-05 03:42:00,
2013-03-04 22:52:00,27.0,21.0,-100.00,ESE,120,0.0,12.0,77,0.00,,,-99.99,,2013-03-05 03:52:00,
2013-03-04 23:02:00,28.0,23.0,-100.00,SW,214,0.0,12.0,77,0.00,,,-99.99,,2013-03-05 04:02:00,
2013-03-04 23:12:00,28.0,23.0,-100.00,NNW,341,0.0,12.0,77,0.00,,,-99.99,,2013-03-05 04:12:00,
2013-03-04 23:22:00,27.0,21.0,-100.00,ENE,74,0.0,12.0,77,0.00,,,-99.99,,2013-03-05 04:22:00,
2013-03-04 23:32:00,27.0,21.0,-100.00,NNW,328,0.0,12.0,78,0.00,,,-99.99,,2013-03-05 04:32:00,
2013-03-04 23:42:00,30.0,25.0,-100.00,NNE,29,0.0,12.0,78,0.00,,,-99.99,,2013-03-05 04:42:00,
2013-03-04 23:52:00,28.0,23.0,-100.00,WNW,288,0.0,12.0,77,0.00,,,-99.99,,2013-03-05 04:52:00,